Terminal Aerodrome Forecast
Issued by NWS Houston/Galveston, TX

Home | Current Version | Previous Version | Text Only | Print | Product List | Glossary On
Versions: 1 2 3 4 5 6 7 8 9 10 11 12 13 14 15 16 17 18 19 20 21 22 23 24
000
FTUS44 KHGX 300530
TAFCLL
TAF
KCLL 300530Z 3006/0106 VRB04KT P6SM FEW035
     FM300900 07002KT 4SM BR SCT015 SCT035
     FM301500 VRB04KT P6SM SCT025 SCT250
     FM301800 15006KT P6SM SCT040 SCT250
     FM010000 15007KT P6SM SCT250=

USA.gov is the U.S. government's official web portal to all federal, state and local government web resources and services.